Year,Month,Day,Hour,Minute,Value (Times are PST for temperature in C)
2014,11,11,08,20,5.50
2014,11,11,08,21,5.50
2014,11,11,08,22,5.50
2014,11,11,08,23,5.60
2014,11,11,08,24,5.60
2014,11,11,08,25,5.60
2014,11,11,08,26,5.60
2014,11,11,08,27,5.60
2014,11,11,08,28,5.60
2014,11,11,08,29,5.60
2014,11,11,08,30,5.60
2014,11,11,08,31,5.60
2014,11,11,08,32,5.70
2014,11,11,08,33,5.70
2014,11,11,08,34,5.70
2014,11,11,08,35,5.70
2014,11,11,08,36,5.70
2014,11,11,08,37,5.70
2014,11,11,08,38,5.70
2014,11,11,08,39,5.80
2014,11,11,08,40,5.80
2014,11,11,08,41,5.80
2014,11,11,08,42,5.80
2014,11,11,08,43,5.80
2014,11,11,08,44,5.80
2014,11,11,08,45,5.80
2014,11,11,08,46,5.90
2014,11,11,08,47,5.90
2014,11,11,08,48,5.90
2014,11,11,08,49,5.90
2014,11,11,08,50,5.90
2014,11,11,08,51,5.90
2014,11,11,08,52,5.90
2014,11,11,08,53,5.90
2014,11,11,08,54,5.90
2014,11,11,08,55,5.90
2014,11,11,08,56,5.90
2014,11,11,08,57,5.80
2014,11,11,08,58,5.90
2014,11,11,08,59,5.90
2014,11,11,09,00,5.90
2014,11,11,09,01,5.90
2014,11,11,09,02,5.90
2014,11,11,09,03,5.90
2014,11,11,09,04,5.90
2014,11,11,09,05,5.90
2014,11,11,09,06,5.90
2014,11,11,09,07,6.00
2014,11,11,09,08,6.00
2014,11,11,09,09,6.00
2014,11,11,09,10,6.00
2014,11,11,09,11,6.00
2014,11,11,09,12,6.00
2014,11,11,09,13,6.00
2014,11,11,09,14,6.00
2014,11,11,09,15,6.00
2014,11,11,09,16,6.10
2014,11,11,09,17,6.10
2014,11,11,09,18,6.10
2014,11,11,09,19,6.20
2014,11,11,09,20,6.20
2014,11,11,09,21,6.20
2014,11,11,09,22,6.20
2014,11,11,09,23,6.20
2014,11,11,09,24,6.20
2014,11,11,09,25,6.20
2014,11,11,09,26,6.20
2014,11,11,09,27,6.20
2014,11,11,09,28,6.20
2014,11,11,09,29,6.20
2014,11,11,09,30,6.20
2014,11,11,09,31,6.20
2014,11,11,09,32,6.20
2014,11,11,09,33,6.20
2014,11,11,09,34,6.20
2014,11,11,09,35,6.20
2014,11,11,09,36,6.20
2014,11,11,09,37,6.20
2014,11,11,09,38,6.30
2014,11,11,09,39,6.30
2014,11,11,09,40,6.20
2014,11,11,09,41,6.20
2014,11,11,09,42,6.30
2014,11,11,09,43,6.30
2014,11,11,09,44,6.30
2014,11,11,09,45,6.20
2014,11,11,09,46,6.30
2014,11,11,09,47,6.30
2014,11,11,09,48,6.30
2014,11,11,09,49,6.30
2014,11,11,09,50,6.30
2014,11,11,09,51,6.30
2014,11,11,09,52,6.30
2014,11,11,09,53,6.30
2014,11,11,09,54,6.30
2014,11,11,09,55,6.30
2014,11,11,09,56,6.30
2014,11,11,09,57,6.30
2014,11,11,09,58,6.30
2014,11,11,09,59,6.30
2014,11,11,10,00,6.40
2014,11,11,10,01,6.40
2014,11,11,10,02,6.50
2014,11,11,10,03,6.60
2014,11,11,10,04,6.60
2014,11,11,10,05,6.60
2014,11,11,10,06,6.60
2014,11,11,10,07,6.60
2014,11,11,10,08,6.70
2014,11,11,10,09,6.70
2014,11,11,10,10,6.70
2014,11,11,10,11,6.70
2014,11,11,10,12,6.70
2014,11,11,10,13,6.70
2014,11,11,10,14,6.80
2014,11,11,10,15,6.80
2014,11,11,10,16,6.80
2014,11,11,10,17,6.80
2014,11,11,10,18,6.80
2014,11,11,10,19,6.80
2014,11,11,10,20,6.80
2014,11,11,10,21,6.80
2014,11,11,10,22,6.80
2014,11,11,10,23,6.80
2014,11,11,10,24,6.90
2014,11,11,10,25,6.90
2014,11,11,10,26,6.90
2014,11,11,10,27,6.80
2014,11,11,10,28,6.80
2014,11,11,10,29,6.80
2014,11,11,10,30,6.80
2014,11,11,10,31,6.80
2014,11,11,10,32,6.80
2014,11,11,10,33,6.80
2014,11,11,10,34,6.80
2014,11,11,10,35,6.80
2014,11,11,10,36,6.80
2014,11,11,10,37,6.80
2014,11,11,10,38,6.80
2014,11,11,10,39,6.80
2014,11,11,10,40,6.90
2014,11,11,10,41,7.00
2014,11,11,10,42,7.00
2014,11,11,10,43,7.10
2014,11,11,10,44,7.10
2014,11,11,10,45,7.10
2014,11,11,10,46,7.20
2014,11,11,10,47,7.20
2014,11,11,10,48,7.30
2014,11,11,10,49,7.30
2014,11,11,10,50,7.30
2014,11,11,10,51,7.30
2014,11,11,10,52,7.30
2014,11,11,10,53,7.30
2014,11,11,10,54,7.30
2014,11,11,10,55,7.30
2014,11,11,10,56,7.30
2014,11,11,10,57,7.30
2014,11,11,10,58,7.30
2014,11,11,10,59,7.30
2014,11,11,11,00,7.30
2014,11,11,11,01,7.30
2014,11,11,11,02,7.30
2014,11,11,11,03,7.30
2014,11,11,11,04,7.30
2014,11,11,11,05,7.30
2014,11,11,11,06,7.30
2014,11,11,11,07,7.40
2014,11,11,11,08,7.50
2014,11,11,11,09,7.50
2014,11,11,11,10,7.50
2014,11,11,11,11,7.50
2014,11,11,11,12,7.50
2014,11,11,11,13,7.40
2014,11,11,11,14,7.30
2014,11,11,11,15,7.30
2014,11,11,11,16,7.30
2014,11,11,11,17,7.30
2014,11,11,11,18,7.30
2014,11,11,11,19,7.30
2014,11,11,11,20,7.40
2014,11,11,11,21,7.40
2014,11,11,11,22,7.40
2014,11,11,11,23,7.40
2014,11,11,11,24,7.40
2014,11,11,11,25,7.40
2014,11,11,11,26,7.50
2014,11,11,11,27,7.50
2014,11,11,11,28,7.50
2014,11,11,11,29,7.50
2014,11,11,11,30,7.50
2014,11,11,11,31,7.50
2014,11,11,11,32,7.50
2014,11,11,11,33,7.60
2014,11,11,11,34,7.60
2014,11,11,11,35,7.70
2014,11,11,11,36,7.80
2014,11,11,11,37,7.80
2014,11,11,11,38,7.80
2014,11,11,11,39,7.90
2014,11,11,11,40,7.90
2014,11,11,11,41,7.90
2014,11,11,11,42,7.90
2014,11,11,11,43,7.90
2014,11,11,11,44,7.90
2014,11,11,11,45,8.00
2014,11,11,11,46,8.00
2014,11,11,11,47,8.00
2014,11,11,11,48,8.00
2014,11,11,11,49,7.90
2014,11,11,11,50,7.90
2014,11,11,11,51,7.90
2014,11,11,11,52,7.90
2014,11,11,11,53,7.80
2014,11,11,11,54,7.80
2014,11,11,11,55,7.80
2014,11,11,11,56,7.70
2014,11,11,11,57,7.70
2014,11,11,11,58,7.70
2014,11,11,11,59,7.70
2014,11,11,12,00,7.70
2014,11,11,12,01,7.70
2014,11,11,12,02,7.80
2014,11,11,12,03,7.80
2014,11,11,12,04,7.80
2014,11,11,12,05,7.80
2014,11,11,12,06,7.80
2014,11,11,12,07,7.70
2014,11,11,12,08,7.70
2014,11,11,12,09,7.70
2014,11,11,12,10,7.80
2014,11,11,12,11,7.80
2014,11,11,12,12,7.80
2014,11,11,12,13,7.80
2014,11,11,12,14,7.80
2014,11,11,12,15,7.90
2014,11,11,12,16,7.90
2014,11,11,12,17,8.00
2014,11,11,12,18,8.00
2014,11,11,12,19,7.90
2014,11,11,12,20,7.90
2014,11,11,12,21,7.90
2014,11,11,12,22,7.90
2014,11,11,12,23,7.90
2014,11,11,12,24,7.90
2014,11,11,12,25,8.00
2014,11,11,12,26,7.90
2014,11,11,12,27,7.90
2014,11,11,12,28,7.90
2014,11,11,12,29,7.90
2014,11,11,12,30,7.90
2014,11,11,12,31,7.90
2014,11,11,12,32,7.80
2014,11,11,12,33,7.80
2014,11,11,12,34,7.80
2014,11,11,12,35,7.80
2014,11,11,12,36,7.80
2014,11,11,12,37,7.80
2014,11,11,12,38,7.80
2014,11,11,12,39,7.80
2014,11,11,12,40,7.90
2014,11,11,12,41,8.00
2014,11,11,12,42,8.00
2014,11,11,12,43,8.10
2014,11,11,12,44,8.10
2014,11,11,12,45,8.10
2014,11,11,12,46,8.10
2014,11,11,12,47,8.10
2014,11,11,12,48,8.20
2014,11,11,12,49,8.20
2014,11,11,12,50,8.10
2014,11,11,12,51,8.00
2014,11,11,12,52,8.00
2014,11,11,12,53,7.90
2014,11,11,12,54,7.90
2014,11,11,12,55,7.80
2014,11,11,12,56,7.80
2014,11,11,12,57,7.80
2014,11,11,12,58,7.80
2014,11,11,12,59,7.80
2014,11,11,13,00,7.90
2014,11,11,13,01,7.90
2014,11,11,13,02,7.90
2014,11,11,13,03,8.00
2014,11,11,13,04,8.00
2014,11,11,13,05,8.10
2014,11,11,13,06,8.10
2014,11,11,13,07,8.00
2014,11,11,13,08,8.00
2014,11,11,13,09,8.00
2014,11,11,13,10,8.00
2014,11,11,13,11,8.00
2014,11,11,13,12,8.00
2014,11,11,13,13,8.00
2014,11,11,13,14,7.90
2014,11,11,13,15,7.90
2014,11,11,13,16,7.90
2014,11,11,13,17,8.00
2014,11,11,13,18,8.00
2014,11,11,13,19,8.10
2014,11,11,13,20,8.00
2014,11,11,13,21,8.10
2014,11,11,13,22,8.00
2014,11,11,13,23,8.00
2014,11,11,13,24,7.90
2014,11,11,13,25,7.90
2014,11,11,13,26,7.90
2014,11,11,13,27,7.80
2014,11,11,13,28,7.80
2014,11,11,13,29,7.80
2014,11,11,13,30,7.80
2014,11,11,13,31,7.80
2014,11,11,13,32,7.80
2014,11,11,13,33,7.80
2014,11,11,13,34,7.80
2014,11,11,13,35,7.80
2014,11,11,13,36,7.80
2014,11,11,13,37,7.90
2014,11,11,13,38,7.90
2014,11,11,13,39,7.90
2014,11,11,13,40,7.90
2014,11,11,13,41,8.00
2014,11,11,13,42,8.00
2014,11,11,13,43,8.00
2014,11,11,13,44,8.00
2014,11,11,13,45,8.00
2014,11,11,13,46,8.10
2014,11,11,13,47,8.10
2014,11,11,13,48,8.20
2014,11,11,13,49,8.20
2014,11,11,13,50,8.20
2014,11,11,13,51,8.20
2014,11,11,13,52,8.20
2014,11,11,13,53,8.10
2014,11,11,13,54,8.10
2014,11,11,13,55,8.10
2014,11,11,13,56,8.00
2014,11,11,13,57,8.00
2014,11,11,13,58,8.00
2014,11,11,13,59,8.00
2014,11,11,14,00,7.90
2014,11,11,14,01,7.90
2014,11,11,14,02,7.90
2014,11,11,14,03,7.90
2014,11,11,14,04,7.90
2014,11,11,14,05,7.90
2014,11,11,14,06,7.90
2014,11,11,14,07,8.00
2014,11,11,14,08,8.00
2014,11,11,14,09,8.00
2014,11,11,14,10,8.00
2014,11,11,14,11,8.00
2014,11,11,14,12,8.00
2014,11,11,14,13,8.00
2014,11,11,14,14,8.10
2014,11,11,14,15,8.10
2014,11,11,14,16,8.10
2014,11,11,14,17,8.10
2014,11,11,14,18,8.10
2014,11,11,14,19,8.10
2014,11,11,14,20,8.20
2014,11,11,14,21,8.20
2014,11,11,14,22,8.20
2014,11,11,14,23,8.10
2014,11,11,14,24,8.00
2014,11,11,14,25,8.00
2014,11,11,14,26,8.00
2014,11,11,14,27,8.10
2014,11,11,14,28,8.10
2014,11,11,14,29,8.10
2014,11,11,14,30,8.10
2014,11,11,14,31,8.00
2014,11,11,14,32,8.00
2014,11,11,14,33,8.00
2014,11,11,14,34,8.00
2014,11,11,14,35,8.00
2014,11,11,14,36,8.00
2014,11,11,14,37,8.00
2014,11,11,14,38,7.90
2014,11,11,14,39,7.90
2014,11,11,14,40,7.90
2014,11,11,14,41,7.90
2014,11,11,14,42,7.90
2014,11,11,14,43,7.90
2014,11,11,14,44,8.00
2014,11,11,14,45,8.00
2014,11,11,14,46,8.00
2014,11,11,14,47,8.00
2014,11,11,14,48,7.90
2014,11,11,14,49,7.90
2014,11,11,14,50,7.90
2014,11,11,14,51,7.80
2014,11,11,14,52,7.80
2014,11,11,14,53,7.80
2014,11,11,14,54,7.80
2014,11,11,14,55,7.80
2014,11,11,14,56,7.80
2014,11,11,14,57,7.80
2014,11,11,14,58,7.80
2014,11,11,14,59,7.80
2014,11,11,15,00,7.80
2014,11,11,15,01,7.80
2014,11,11,15,02,7.80
2014,11,11,15,03,7.80
2014,11,11,15,04,7.70
2014,11,11,15,05,7.70
2014,11,11,15,06,7.70
2014,11,11,15,07,7.70
2014,11,11,15,08,7.70
2014,11,11,15,09,7.80
2014,11,11,15,10,7.70
2014,11,11,15,11,7.70
2014,11,11,15,12,7.70
2014,11,11,15,13,7.70
2014,11,11,15,14,7.70
2014,11,11,15,15,7.70
2014,11,11,15,16,7.70
2014,11,11,15,17,7.70
2014,11,11,15,18,7.70
2014,11,11,15,19,7.70
2014,11,11,15,20,7.70
2014,11,11,15,21,7.70
2014,11,11,15,22,7.70
2014,11,11,15,23,7.70
2014,11,11,15,24,7.70
2014,11,11,15,25,7.70
2014,11,11,15,26,7.70
2014,11,11,15,27,7.70
2014,11,11,15,28,7.60
2014,11,11,15,29,7.50
2014,11,11,15,30,7.50
2014,11,11,15,31,7.50
2014,11,11,15,32,7.50
2014,11,11,15,33,7.40
2014,11,11,15,34,7.40
2014,11,11,15,35,7.40
2014,11,11,15,36,7.40
2014,11,11,15,37,7.40
2014,11,11,15,38,7.40
2014,11,11,15,39,7.40
2014,11,11,15,40,7.40
2014,11,11,15,41,7.40
2014,11,11,15,42,7.30
2014,11,11,15,43,7.30
2014,11,11,15,44,7.30
2014,11,11,15,45,7.30
2014,11,11,15,46,7.30
2014,11,11,15,47,7.30
2014,11,11,15,48,7.30
2014,11,11,15,49,7.30
2014,11,11,15,50,7.30
2014,11,11,15,51,7.20
2014,11,11,15,52,7.20
2014,11,11,15,53,7.20
2014,11,11,15,54,7.20
2014,11,11,15,55,7.10
2014,11,11,15,56,7.10
2014,11,11,15,57,7.10
2014,11,11,15,58,7.10
2014,11,11,15,59,7.10
2014,11,11,16,00,7.10
2014,11,11,16,01,7.10
2014,11,11,16,02,7.10
2014,11,11,16,03,7.00
2014,11,11,16,04,7.00
2014,11,11,16,05,7.00
2014,11,11,16,06,7.00
2014,11,11,16,07,7.00
2014,11,11,16,08,7.00
2014,11,11,16,09,6.90
2014,11,11,16,10,6.90
2014,11,11,16,11,6.90
2014,11,11,16,12,6.90
2014,11,11,16,13,6.90
2014,11,11,16,14,6.90
2014,11,11,16,15,6.80
2014,11,11,16,16,6.80
2014,11,11,16,17,6.80
2014,11,11,16,18,6.80
2014,11,11,16,19,6.80
2014,11,11,16,20,6.80
2014,11,11,16,21,6.80
2014,11,11,16,22,6.80
2014,11,11,16,23,6.80
2014,11,11,16,24,6.80
2014,11,11,16,25,6.80
